Change the Weather History Date:

Wednesday, October 17, 2012

  Actual Average Record
Temperature  
Mean Temperature 64 °F -  
Max Temperature 72 °F 66 °F 85 °F (1964)
Min Temperature 56 °F 44 °F 27 °F (1977)
Degree Days  
Heating Degree Days 1    
Growing Degree Days 14 (Base 50)    
Moisture  
Dew Point 51 °F    
Average Humidity 63    
Maximum Humidity 90    
Minimum Humidity 47    
Precipitation  
Precipitation 1.01 in - - ()
Sea Level Pressure  
Sea Level Pressure 29.58 in    
Wind  
Wind Speed 13 mph (South)    
Max Wind Speed 29 mph    
Max Gust Speed 36 mph    
Visibility 10 miles    
Events Rain , Thunderstorm    
Averages and records for this station are not official NWS values.
T = Trace of Precipitation, MM = Missing Value Source: NWS Daily Summary

Daily Weather History Graph

Daily Weather History Graph

Search for Another Location

Airport or City:

Trip Planner

Search our weather history database for the weather conditions in past years. The results will help you decide how hot, cold, wet, or windy it might be!

Date:

Astronomy

Oct. 17, 2012 Rise Set
Actual Time 7:07 AM CDT 6:14 PM CDT
Civil Twilight 6:40 AM CDT 6:40 PM CDT
Nautical Twilight 6:09 AM CDT 7:11 PM CDT
Astronomical Twilight 5:39 AM CDT 7:42 PM CDT
Moon 9:39 AM CDT (10/17) 7:52 PM CDT (10/17)
Length of Visible Light 12h 00m
Length of Day
11h 06m
Waxing Crescent, 7% of the Moon is Illuminated
Oct 17
Waxing Crescent
Oct 21
First Quarter
Oct 29
Full
Nov 6
Last Quarter
Nov 13
New

Hourly Weather History & Observations

Time (CDT) Temp. Dew Point Humidity Pressure Visibility Wind Dir Wind Speed Gust Speed Precip Events Conditions
12:15 AM 64.8 °F 45.5 °F 50% 29.70 in 10.0 mi South 12.7 mph - N/A   Clear
12:35 AM 63.9 °F 45.5 °F 51% 29.70 in 10.0 mi South 11.5 mph 17.3 mph N/A   Clear
12:55 AM 63.9 °F 45.1 °F 51% 29.70 in 10.0 mi South 13.8 mph - N/A   Clear
1:15 AM 63.3 °F 45.5 °F 52% 29.70 in 10.0 mi South 13.8 mph 17.3 mph N/A   Clear
1:35 AM 63.0 °F 45.5 °F 53% 29.70 in 10.0 mi South 11.5 mph 18.4 mph N/A   Clear
1:55 AM 62.6 °F 45.7 °F 54% 29.70 in 10.0 mi South 12.7 mph 17.3 mph N/A   Clear
2:15 AM 62.2 °F 45.7 °F 55% 29.70 in 10.0 mi South 10.4 mph 17.3 mph N/A   Clear
2:35 AM 61.7 °F 45.9 °F 56% 29.70 in 10.0 mi South 10.4 mph - N/A   Clear
2:55 AM 61.2 °F 46.0 °F 58% 29.69 in 10.0 mi South 9.2 mph - N/A   Clear
3:15 AM 60.8 °F 46.4 °F 59% 29.68 in 10.0 mi South 10.4 mph - N/A   Clear
3:35 AM 60.3 °F 46.8 °F 61% 29.68 in 10.0 mi South 10.4 mph - N/A   Clear
3:55 AM 60.1 °F 47.3 °F 63% 29.68 in 10.0 mi South 9.2 mph - N/A   Clear
4:15 AM 59.5 °F 47.7 °F 65% 29.66 in 10.0 mi South 9.2 mph - N/A   Clear
4:35 AM 59.7 °F 48.2 °F 66% 29.66 in 10.0 mi South 9.2 mph - N/A   Clear
4:55 AM 59.9 °F 48.6 °F 66% 29.66 in 10.0 mi South 9.2 mph - N/A   Scattered Clouds
5:15 AM 60.3 °F 48.7 °F 66% 29.66 in 10.0 mi South 11.5 mph 17.3 mph N/A   Mostly Cloudy
5:35 AM 59.7 °F 48.7 °F 67% 29.67 in 10.0 mi South 9.2 mph - N/A   Mostly Cloudy
5:55 AM 59.9 °F 48.6 °F 66% 29.67 in 10.0 mi South 9.2 mph - N/A   Scattered Clouds
6:15 AM 60.1 °F 48.2 °F 65% 29.66 in 10.0 mi South 11.5 mph - N/A   Clear
6:35 AM 60.3 °F 47.8 °F 64% 29.66 in 10.0 mi South 13.8 mph 18.4 mph N/A   Clear
6:55 AM 60.4 °F 47.8 °F 63% 29.65 in 10.0 mi South 13.8 mph - N/A   Clear
7:15 AM 60.6 °F 47.8 °F 63% 29.65 in 10.0 mi South 13.8 mph - N/A   Clear
7:35 AM 60.8 °F 47.8 °F 62% 29.64 in 10.0 mi South 12.7 mph - N/A   Clear
7:55 AM 60.8 °F 48.0 °F 63% 29.64 in 10.0 mi South 12.7 mph 18.4 mph N/A   Clear
8:15 AM 61.2 °F 48.2 °F 62% 29.64 in 10.0 mi South 12.7 mph - N/A   Clear
8:35 AM 61.5 °F 48.4 °F 62% 29.64 in 10.0 mi South 15.0 mph 19.6 mph N/A   Clear
8:55 AM 62.2 °F 48.7 °F 61% 29.63 in 10.0 mi South 13.8 mph 24.2 mph N/A   Clear
9:15 AM 63.5 °F 49.1 °F 59% 29.63 in 10.0 mi South 15.0 mph - N/A   Clear
9:35 AM 64.6 °F 50.0 °F 59% 29.63 in 10.0 mi South 18.4 mph 25.3 mph N/A   Scattered Clouds
9:55 AM 65.8 °F 50.5 °F 58% 29.63 in 10.0 mi South 17.3 mph 24.2 mph N/A   Mostly Cloudy
10:15 AM 66.2 °F 50.9 °F 58% 29.63 in 10.0 mi South 18.4 mph 25.3 mph N/A   Mostly Cloudy
10:35 AM 66.4 °F 51.3 °F 58% 29.62 in 10.0 mi South 18.4 mph 24.2 mph N/A   Overcast
10:55 AM 66.2 °F 51.4 °F 59% 29.61 in 10.0 mi South 16.1 mph 24.2 mph N/A   Overcast
11:15 AM 66.2 °F 51.4 °F 59% 29.61 in 10.0 mi South 16.1 mph 21.9 mph N/A   Overcast
11:35 AM 67.1 °F 51.8 °F 58% 29.61 in 10.0 mi South 12.7 mph 21.9 mph N/A   Overcast
11:55 AM 68.0 °F 51.8 °F 56% 29.60 in 10.0 mi South 16.1 mph 21.9 mph N/A   Overcast
12:15 PM 70.2 °F 52.0 °F 52% 29.58 in 10.0 mi South 19.6 mph 25.3 mph N/A   Overcast
12:35 PM 71.2 °F 53.1 °F 53% 29.58 in 10.0 mi South 23.0 mph 28.8 mph N/A   Overcast
12:55 PM 71.8 °F 52.7 °F 51% 29.57 in 10.0 mi South 21.9 mph 31.1 mph N/A   Mostly Cloudy
1:15 PM 71.2 °F 52.2 °F 51% 29.57 in 10.0 mi South 21.9 mph 29.9 mph N/A   Mostly Cloudy
1:35 PM 71.8 °F 51.6 °F 49% 29.56 in 10.0 mi South 19.6 mph 29.9 mph N/A   Overcast
1:55 PM 72.5 °F 51.1 °F 47% 29.54 in 10.0 mi South 19.6 mph 27.6 mph N/A   Overcast
2:15 PM 72.0 °F 51.1 °F 48% 29.54 in 10.0 mi South 21.9 mph 27.6 mph N/A   Overcast
2:35 PM 72.0 °F 51.6 °F 49% 29.53 in 10.0 mi SSW 15.0 mph 19.6 mph N/A   Overcast
2:55 PM 72.0 °F 51.4 °F 48% 29.52 in 10.0 mi SSW 15.0 mph 25.3 mph N/A   Overcast
3:15 PM 72.0 °F 51.3 °F 48% 29.52 in 10.0 mi South 11.5 mph 19.6 mph N/A   Overcast
3:35 PM 72.0 °F 51.4 °F 48% 29.51 in 10.0 mi South 13.8 mph - N/A   Overcast
3:55 PM 71.4 °F 52.0 °F 50% 29.50 in 10.0 mi South 9.2 mph - N/A   Overcast
4:15 PM 72.1 °F 51.8 °F 49% 29.48 in 10.0 mi South 11.5 mph - N/A   Overcast
4:35 PM 72.0 °F 52.0 °F 49% 29.46 in 10.0 mi South 13.8 mph 18.4 mph N/A   Overcast
4:55 PM 71.6 °F 52.3 °F 51% 29.45 in 10.0 mi South 11.5 mph 19.6 mph N/A Rain Light Rain
5:15 PM 69.8 °F 53.8 °F 57% 29.44 in 10.0 mi SSE 9.2 mph - N/A Rain Light Rain
5:35 PM 68.0 °F 54.7 °F 62% 29.42 in 7.0 mi SSE 9.2 mph - N/A Rain , Thunderstorm Thunderstorms and Rain
5:55 PM 67.6 °F 54.9 °F 64% 29.39 in 10.0 mi SSE 8.1 mph - N/A Thunderstorm Overcast
6:15 PM 69.6 °F 53.2 °F 56% 29.37 in 10.0 mi SSE 10.4 mph 18.4 mph N/A   Overcast
6:35 PM 71.2 °F 52.0 °F 51% 29.36 in 10.0 mi South 11.5 mph 21.9 mph N/A Rain , Thunderstorm Light Thunderstorms and Rain
6:55 PM 64.9 °F 59.9 °F 84% 29.40 in 7.0 mi SW 8.1 mph - 0.02 in Rain , Thunderstorm Heavy Thunderstorms and Rain
7:15 PM 64.9 °F 61.0 °F 87% 29.41 in 4.0 mi SW 18.4 mph 26.5 mph 0.17 in Rain , Thunderstorm Heavy Thunderstorms and Rain
7:35 PM 64.6 °F 61.3 °F 89% 29.45 in 2.0 mi SW 15.0 mph 23.0 mph 0.60 in Rain , Thunderstorm Heavy Thunderstorms and Rain
7:55 PM 60.8 °F 57.6 °F 89% 29.47 in 7.0 mi West 10.4 mph 17.3 mph 0.91 in Rain , Thunderstorm Rain
8:15 PM 61.0 °F 57.4 °F 88% 29.50 in 10.0 mi SW 6.9 mph - N/A Rain , Thunderstorm Light Thunderstorms and Rain
8:35 PM 60.8 °F 57.0 °F 87% 29.45 in 10.0 mi Calm Calm - N/A Rain Rain
8:55 PM 60.3 °F 57.4 °F 90% 29.45 in 10.0 mi Calm Calm - N/A   Overcast
9:15 PM 60.8 °F 57.2 °F 88% 29.50 in 10.0 mi SSW 8.1 mph - N/A   Overcast
9:35 PM 60.4 °F 56.8 °F 88% 29.50 in 10.0 mi SSW 6.9 mph - N/A Rain Rain
9:55 PM 59.9 °F 56.8 °F 90% 29.52 in 5.0 mi SSW 8.1 mph - 0.03 in Rain Rain
10:15 PM 59.7 °F 56.7 °F 90% 29.54 in 5.0 mi West 28.8 mph 35.7 mph 0.05 in Rain Heavy Rain
10:35 PM 56.7 °F 49.3 °F 76% 29.53 in 10.0 mi NW 11.5 mph 19.6 mph 0.05 in Rain Light Rain
10:55 PM 56.7 °F 51.3 °F 82% 29.53 in 10.0 mi WNW 8.1 mph - 0.05 in   Overcast
11:15 PM 56.5 °F 51.8 °F 84% 29.54 in 10.0 mi West 5.8 mph - N/A   Overcast
11:35 PM 56.3 °F 51.1 °F 83% 29.54 in 10.0 mi West 5.8 mph - N/A   Scattered Clouds
11:55 PM 56.3 °F 50.4 °F 80% 29.55 in 10.0 mi West 8.1 mph - N/A   Clear